| time (UTC) | temp F | wind direction | speed MPH | gust MPH | rain 1hr in | rain 24hr in | rain mn in | humidity % | barometer mb |
| 20260506081512 | 42 | 304 | 0.0 | 0.0 | 0.00 | 0.00 | 0.00 | 79 | 1012.7 |
| 20260506073038 | 43 | 304 | 0.0 | 0.0 | 0.00 | 0.00 | 0.00 | 78 | 1012.8 |
| 20260506071530 | 44 | 304 | 0.0 | 0.0 | 0.00 | 0.00 | 0.00 | 76 | 1012.6 |
| 20260506061545 | 47 | 304 | 0.0 | 0.0 | 0.00 | 0.00 | 0.00 | 70 | 1012.1 |
| 20260506044535 | 51 | 304 | 0.0 | 0.0 | 0.00 | 0.00 | 0.00 | 66 | 1011.0 |
| 20260506043015 | 52 | 304 | 0.0 | 0.0 | 0.00 | 0.00 | 0.00 | 64 | 1011.0 |
| 20260506041524 | 53 | 304 | 0.0 | 0.0 | 0.00 | 0.00 | 0.00 | 61 | 1010.8 |
| 20260506040108 | 55 | 304 | 0.0 | 0.0 | 0.00 | 0.00 | 0.00 | 58 | 1010.8 |
| 20260506034548 | 57 | 304 | 0.0 | 0.0 | 0.00 | 0.00 | 0.15 | 52 | 1010.6 |
| 20260506033049 | 59 | 304 | 0.0 | 0.0 | 0.00 | 0.00 | 0.15 | 46 | 1010.4 |
| 20260506031531 | 60 | 304 | 0.0 | 0.0 | 0.00 | 0.00 | 0.15 | 44 | 1010.1 |
| 20260506030033 | 61 | 304 | 0.0 | 0.0 | 0.00 | 0.00 | 0.15 | 42 | 1009.8 |
| 20260506024513 | 63 | 304 | 0.0 | 0.0 | 0.00 | 0.00 | 0.15 | 40 | 1009.5 |
| 20260506023012 | 65 | 304 | 0.0 | 0.0 | 0.00 | 0.00 | 0.15 | 37 | 1009.4 |
| 20260506021557 | 66 | 304 | 0.0 | 0.0 | 0.00 | 0.00 | 0.15 | 36 | 1009.3 |
| 20260506020054 | 68 | 304 | 1.0 | 0.0 | 0.00 | 0.00 | 0.15 | 33 | 1009.2 |
| 20260506014545 | 68 | 304 | 2.0 | 0.0 | 0.00 | 0.00 | 0.15 | 33 | 1009.0 |
| 20260506013039 | 68 | 304 | 2.0 | 0.0 | 0.00 | 0.00 | 0.15 | 34 | 1009.0 |
| 20260506011518 | 67 | 304 | 1.0 | 0.0 | 0.00 | 0.00 | 0.15 | 37 | 1008.9 |
| 20260506010024 | 69 | 304 | 1.0 | 0.0 | 0.00 | 0.00 | 0.15 | 38 | 1008.9 |
| 20260506004600 | 68 | 304 | 1.0 | 0.0 | 0.00 | 0.00 | 0.15 | 39 | 1009.0 |
| 20260506003100 | 69 | 304 | 1.0 | 0.0 | 0.00 | 0.00 | 0.15 | 38 | 1008.9 |
| 20260506001604 | 67 | 304 | 0.0 | 0.0 | 0.00 | 0.00 | 0.15 | 39 | 1008.9 |
| 20260506000046 | 66 | 304 | 0.0 | 0.0 | 0.00 | 0.00 | 0.15 | 44 | 1009.1 |
| 20260505234524 | 67 | 304 | 0.0 | 0.0 | 0.00 | 0.00 | 0.15 | 41 | 1009.1 |
| 20260505233123 | 68 | 304 | 0.0 | 0.0 | 0.00 | 0.00 | 0.15 | 39 | 1009.2 |
| 20260505231506 | 69 | 304 | 1.0 | 0.0 | 0.00 | 0.00 | 0.15 | 36 | 1009.2 |
| 20260505230005 | 68 | 304 | 1.0 | 0.0 | 0.00 | 0.00 | 0.15 | 39 | 1009.3 |
| 20260505224549 | 69 | 304 | 2.0 | 0.0 | 0.00 | 0.00 | 0.15 | 35 | 1009.4 |
| 20260505223055 | 69 | 305 | 2.0 | 0.0 | 0.00 | 0.00 | 0.15 | 36 | 1009.5 |
| 20260505221530 | 68 | 305 | 0.0 | 0.0 | 0.00 | 0.00 | 0.15 | 38 | 1009.7 |
| 20260505220037 | 68 | 306 | 1.0 | 0.0 | 0.00 | 0.00 | 0.15 | 34 | 1009.7 |
| 20260505214516 | 68 | 306 | 3.0 | 0.0 | 0.00 | 0.00 | 0.15 | 36 | 1009.7 |
| 20260505213009 | 70 | 303 | 3.0 | 0.0 | 0.00 | 0.00 | 0.15 | 41 | 1009.8 |
| 20260505211558 | 68 | 303 | 3.0 | 0.0 | 0.00 | 0.00 | 0.15 | 37 | 1009.9 |
| 20260505210056 | 68 | 298 | 4.0 | 0.0 | 0.00 | 0.00 | 0.15 | 35 | 1010.1 |
| 20260505204536 | 69 | 335 | 4.0 | 0.0 | 0.00 | 0.00 | 0.15 | 35 | 1010.1 |
| 20260505203037 | 67 | 307 | 3.0 | 0.0 | 0.00 | 0.00 | 0.15 | 36 | 1010.1 |
| 20260505201517 | 66 | 310 | 3.0 | 0.0 | 0.00 | 0.00 | 0.15 | 39 | 1010.3 |
| 20260505200014 | 67 | 310 | 0.0 | 0.0 | 0.00 | 0.00 | 0.15 | 39 | 1010.3 |
| 20260505194558 | 66 | 310 | 0.0 | 0.0 | 0.00 | 0.00 | 0.15 | 39 | 1010.3 |
| 20260505193054 | 68 | 310 | 1.0 | 0.0 | 0.00 | 0.00 | 0.15 | 36 | 1010.4 |
| 20260505191548 | 67 | 310 | 3.0 | 0.0 | 0.00 | 0.00 | 0.15 | 37 | 1010.5 |
| 20260505190039 | 66 | 292 | 4.0 | 0.0 | 0.00 | 0.00 | 0.15 | 39 | 1010.5 |
| 20260505184521 | 67 | 319 | 3.0 | 0.0 | 0.00 | 0.00 | 0.15 | 39 | 1010.5 |
| 20260505183026 | 67 | 351 | 2.0 | 0.0 | 0.00 | 0.00 | 0.15 | 37 | 1010.5 |
| 20260505181600 | 66 | 289 | 2.0 | 0.0 | 0.00 | 0.00 | 0.15 | 42 | 1010.5 |
| 20260505180056 | 66 | 327 | 0.0 | 0.0 | 0.00 | 0.00 | 0.15 | 42 | 1010.6 |
| 20260505174541 | 65 | 321 | 1.0 | 0.0 | 0.00 | 0.00 | 0.15 | 41 | 1010.7 |
| 20260505173040 | 64 | 317 | 1.0 | 0.0 | 0.00 | 0.00 | 0.15 | 44 | 1010.7 |
| 20260505171527 | 64 | 103 | 0.0 | 0.0 | 0.00 | 0.00 | 0.15 | 43 | 1010.8 |
| 20260505170016 | 63 | 103 | 0.0 | 0.0 | 0.00 | 0.00 | 0.15 | 46 | 1010.7 |
| 20260505164555 | 62 | 113 | 1.0 | 0.0 | 0.00 | 0.00 | 0.15 | 49 | 1010.8 |
| 20260505163058 | 62 | 128 | 0.0 | 0.0 | 0.00 | 0.00 | 0.15 | 51 | 1010.7 |
| 20260505161534 | 60 | 128 | 0.0 | 0.0 | 0.00 | 0.00 | 0.15 | 54 | 1010.7 |
| 20260505153006 | 57 | 164 | 0.0 | 0.0 | 0.00 | 0.00 | 0.15 | 62 | 1010.7 |
| 20260505151544 | 55 | 163 | 0.0 | 0.0 | 0.00 | 0.00 | 0.15 | 69 | 1010.7 |
| 20260505124504 | 40 | 164 | 0.0 | 0.0 | 0.00 | 0.00 | 0.15 | 90 | 1010.0 |
| 20260505123001 | 40 | 164 | 0.0 | 0.0 | 0.00 | 0.00 | 0.15 | 89 | 1009.9 |
| 20260505121541 | 41 | 164 | 0.0 | 0.0 | 0.00 | 0.00 | 0.15 | 90 | 1009.8 |
| 20260505120049 | 41 | 164 | 0.0 | 0.0 | 0.00 | 0.00 | 0.15 | 90 | 1009.6 |
| 20260505114530 | 42 | 164 | 0.0 | 0.0 | 0.00 | 0.00 | 0.15 | 90 | 1009.7 |
| 20260505113021 | 41 | 164 | 0.0 | 0.0 | 0.00 | 0.00 | 0.15 | 91 | 1009.7 |
| 20260505111509 | 41 | 164 | 0.0 | 0.0 | 0.00 | 0.00 | 0.15 | 90 | 1009.5 |
| 20260505101521 | 43 | 164 | 0.0 | 0.0 | 0.00 | 0.00 | 0.15 | 89 | 1009.1 |
| 20260505100026 | 43 | 164 | 0.0 | 0.0 | 0.00 | 0.00 | 0.14 | 89 | 1009.0 |
| 20260505094608 | 43 | 164 | 0.0 | 0.0 | 0.00 | 0.00 | 0.14 | 89 | 1008.9 |
| 20260505093056 | 44 | 164 | 0.0 | 0.0 | 0.00 | 0.00 | 0.14 | 88 | 1008.9 |
| 20260505091544 | 44 | 164 | 0.0 | 0.0 | 0.00 | 0.00 | 0.14 | 88 | 1008.8 |
| 20260505090049 | 44 | 164 | 0.0 | 0.0 | 0.00 | 0.00 | 0.14 | 87 | 1008.8 |
| 20260505084525 | 45 | 164 | 0.0 | 0.0 | 0.00 | 0.00 | 0.14 | 87 | 1008.7 |
| 20260505083023 | 46 | 164 | 0.0 | 0.0 | 0.00 | 0.00 | 0.14 | 87 | 1008.6 |